Wind_Speed
72 72 72 72 72 71 71 70 68 68 67 66 66 64 62 59 56 54 51 50 50 51 51 49 47 45 44 43 43 44 46 48 51 50 51 53 54 55 55 54 54 52 53 55
73 73 72 72 72 72 71 71 69 70 68 67 66 65 61 56 56 55 53 54 54 54 53 52 51 51 50 49 48 48 49 52 55 57 57 56 57 58 59 57 56 58 57 60
76 76 75 75 74 73 72 71 67 66 64 62 62 61 60 60 59 58 58 58 58 55 54 53 52 52 51 50 49 49 49 52 52 55 56 56 57 58 60 61 60 59 62 60
76 76 75 74 73 72 72 70 68 68 67 67 66 65 65 65 62 61 61 61 59 58 58 58 58 57 57 56 55 53 54 53 54 56 57 59 60 60 62 62 63 65 65 66
78 78 78 78 77 77 77 76 74 72 70 70 70 70 68 68 67 67 65 64 63 64 64 64 65 65 62 61 59 59 59 60 59 60 63 64 63 65 66 67 68 69 69 68
84 83 83 81 80 80 79 79 79 77 75 75 75 74 74 74 73 72 72 72 71 70 68 69 69 69 68 67 66 65 67 67 66 67 69 71 70 69 71 72 72 73 73 72
89 88 88 88 87 86 85 84 84 84 82 82 79 80 81 80 79 78 78 77 77 73 75 75 74 73 74 72 72 73 72 73 74 73 74 75 74 75 76 75 77 76 77 78
93 93 92 91 92 91 91 91 90 90 89 89 90 88 87 87 86 86 84 82 81 80 80 79 78 78 78 77 76 79 79 79 79 79 79 80 80 78 80 80 82 82 83 84
100 98 97 96 96 97 96 95 94 93 92 93 93 94 93 91 89 88 89 87 86 87 86 86 84 83 84 82 82 85 84 84 85 85 85 85 85 84 86 86 88 87 88 87
104 104 103 103 102 102 103 101 100 98 96 96 97 98 96 95 95 94 93 93 93 92 91 91 90 90 90 89 91 90 90 89 89 90 90 90 89 90 90 89 89 89 85 84
108 108 107 106 107 108 108 108 107 106 104 102 103 103 102 102 102 101 99 99 100 99 99 97 97 96 98 96 98 98 96 94 94 94 94 95 91 92 89 86 85 81 80 79
110 111 112 112 111 111 112 113 113 112 110 109 111 110 111 109 109 107 106 106 105 105 105 105 103 103 100 98 96 93 92 90 90 86 87 84 82 79 75 74 74 74 72 70
114 113 115 116 116 116 117 118 118 118 116 114 115 116 115 112 112 113 110 109 109 108 107 105 101 99 95 89 88 87 83 77 72 72 72 71 67 66 67 67 68 66 65 64
117 117 118 117 118 118 116 117 116 116 116 112 113 116 114 114 114 114 111 110 108 105 102 99 97 91 85 86 82 75 74 69 65 60 66 60 64 64 64 65 63 59 55 54
109 109 109 110 111 110 110 111 110 109 109 106 108 111 113 112 111 110 109 107 104 101 99 94 90 87 82 77 70 67 69 65 59 58 60 57 65 61 57 56 52 49 49 54
106 106 106 106 105 104 103 104 103 103 104 103 105 106 111 106 107 107 106 105 104 101 95 90 86 82 78 71 67 73 63 57 55 57 55 58 61 56 52 53 52 52 55 57
96 96 96 94 93 92 93 93 95 95 93 92 91 92 97 92 94 97 97 99 100 98 94 90 86 83 77 70 72 71 60 58 57 58 59 57 56 54 51 53 54 53 54 47
87 87 86 84 84 83 82 81 80 78 77 73 70 74 74 74 76 79 80 83 86 86 85 87 87 84 78 71 78 66 65 63 60 57 56 57 53 54 54 56 55 50 39 32
73 72 71 71 70 68 64 65 64 63 62 60 59 58 57 61 60 60 62 66 69 71 72 74 77 77 76 80 71 67 63 61 58 56 56 55 51 51 54 53 42 34 29 24
60 61 59 57 55 54 54 53 52 50 47 45 43 43 45 44 45 45 48 51 55 59 62 63 63 66 69 68 66 64 63 60 58 55 53 50 49 48 46 29 26 25 20 16
47 47 46 45 43 41 40 38 34 32 31 30 31 32 32 32 34 36 38 40 42 46 48 52 55 55 53 56 58 59 57 56 53 48 46 45 46 37 29 25 21 14 13 15
35 33 32 30 28 27 25 23 25 24 24 25 26 25 25 25 26 27 29 31 32 34 35 40 43 45 47 46 45 46 47 45 45 43 42 39 28 22 19 16 11 9 12 16
23 22 21 21 21 20 20 19 18 18 21 21 21 21 20 21 22 23 24 23 22 21 25 30 32 36 40 39 37 38 39 39 37 37 28 20 13 11 11 10 9 6 10 13
17 17 18 19 19 20 20 20 20 21 21 20 19 17 17 19 20 20 19 18 20 22 19 17 21 28 28 29 30 30 29 29 24 18 13 8 2 6 7 6 6 8 10 10
15 16 18 21 21 22 21 22 22 21 20 19 20 19 18 19 20 22 22 21 18 17 17 16 19 18 21 23 20 17 15 15 13 8 4 3 2 2 3 5 10 12 12 11
19 20 22 24 25 25 26 26 25 25 22 19 18 20 21 24 22 22 20 21 21 20 20 19 18 18 17 13 16 17 16 13 10 10 7 3 4 1 5 7 7 9 12 14
28 29 29 28 28 28 28 27 25 24 22 22 21 22 23 23 24 24 22 22 21 21 21 22 23 21 20 24 21 22 20 19 16 15 12 9 9 5 4 6 7 8 8 10
Wind_Direction
249 250 252 253 255 257 259 260 260 262 263 265 266 268 269 270 270 271 273 275 278 279 279 279 279 280 280 280 280 280 282 284 286 284 285 287 289 289 290 290 292 291 292 295
251 253 254 256 257 258 259 261 263 265 265 264 265 266 267 266 267 269 271 274 276 277 278 279 279 279 279 279 280 282 283 284 285 287 287 289 289 290 292 295 296 296 298 297
252 254 255 256 258 259 259 260 261 262 262 263 263 264 266 267 267 270 272 274 276 276 277 278 280 280 280 280 281 283 283 284 284 286 289 289 288 290 292 293 294 295 295 298
252 254 254 255 256 257 258 259 259 261 263 265 265 266 267 268 270 271 272 274 275 277 278 281 282 282 282 282 283 284 284 283 284 285 287 288 290 290 291 292 293 294 295 297
250 251 253 255 255 256 258 258 259 260 261 263 265 265 267 268 270 271 271 271 273 274 276 279 280 281 281 282 282 283 284 285 286 286 286 287 289 290 291 292 292 295 295 296
250 251 253 254 255 256 256 258 258 260 261 262 264 265 265 267 268 269 271 271 272 273 276 276 277 278 280 282 282 283 284 285 286 286 287 287 287 289 289 291 292 293 295 297
251 252 252 253 254 255 257 258 260 260 261 261 263 265 266 267 267 267 268 269 270 271 271 272 273 274 277 279 281 282 282 283 283 284 285 285 287 288 289 291 293 296 297 297
251 252 252 253 254 255 256 257 258 259 260 261 262 262 262 263 265 267 267 267 268 270 270 272 273 275 277 278 281 282 282 283 284 285 286 286 286 289 291 292 293 294 294 296
251 251 251 252 253 254 255 256 257 258 259 260 261 261 262 263 264 265 267 268 270 271 272 272 272 273 275 277 278 280 281 282 284 283 284 285 286 288 290 291 291 292 294 295
253 254 254 254 254 255 255 256 256 257 259 260 262 263 263 264 265 265 266 268 269 270 271 273 274 274 275 277 278 279 279 280 281 282 282 283 285 286 288 290 291 292 293 295
253 254 254 255 256 257 257 257 258 258 257 258 260 261 262 262 263 265 266 267 267 269 270 270 271 273 275 276 277 279 279 280 279 279 280 281 283 284 286 287 287 289 291 293
254 254 255 255 256 257 258 258 259 259 259 260 260 261 261 262 263 264 265 266 267 268 270 271 272 274 275 277 277 278 279 281 281 280 282 282 283 283 284 285 286 289 292 292
255 256 256 257 258 259 260 260 260 260 260 260 261 262 262 262 262 263 265 266 266 266 269 271 272 274 274 274 276 279 280 279 278 279 281 282 284 285 284 285 289 291 291 291
256 256 257 258 259 260 260 261 261 261 260 260 260 261 262 262 263 263 264 265 265 266 267 268 269 270 271 274 277 277 274 275 278 281 279 286 283 283 285 288 290 289 291 292
256 257 258 259 260 261 261 261 262 262 261 260 259 258 259 260 261 262 262 262 263 264 266 267 267 267 269 270 273 274 272 274 277 278 279 281 281 285 287 288 290 291 292 291
256 257 258 260 262 263 263 263 263 262 260 259 258 257 258 259 259 258 259 259 260 261 262 264 265 265 265 268 271 269 273 277 276 276 281 282 284 287 287 286 291 294 291 291
260 261 263 264 265 265 264 262 261 261 263 263 263 262 261 259 256 256 256 256 256 258 259 260 260 261 263 265 264 267 273 274 277 278 281 283 286 288 290 291 291 292 291 285
262 262 262 262 262 262 262 264 264 265 264 264 261 258 259 257 254 253 253 253 253 254 254 254 255 257 259 259 260 267 268 272 274 277 279 284 288 288 291 292 293 291 280 273
258 259 259 259 259 261 263 262 263 262 260 259 256 256 254 253 253 252 250 250 249 249 249 249 250 251 252 254 260 263 266 269 272 276 281 283 286 289 290 291 286 278 269 257
254 254 255 257 258 257 257 257 257 256 256 254 252 251 248 248 246 245 244 243 243 243 243 244 245 245 248 252 254 258 262 267 272 278 281 282 286 288 289 282 278 269 257 237
250 250 250 251 250 250 250 252 253 252 248 245 241 238 236 233 233 235 236 237 240 241 240 238 239 241 244 247 251 255 260 266 273 274 279 283 288 284 276 272 266 252 241 226
243 243 243 243 242 242 243 241 238 235 229 223 220 219 221 221 222 223 226 231 232 234 234 233 234 235 240 245 250 253 258 264 269 276 282 287 280 273 271 266 253 241 236 228
234 235 235 230 225 219 212 212 207 199 199 200 198 198 197 200 204 207 215 221 225 221 221 223 227 229 235 243 247 251 257 263 271 279 279 274 269 270 268 259 256 239 239 225
217 215 211 205 198 194 191 184 179 177 178 178 178 182 178 179 185 195 198 196 196 201 208 208 218 227 231 238 242 245 254 265 263 251 247 267 288 294 268 222 222 217 225 216
178 179 177 172 168 167 166 162 160 160 164 166 163 161 163 171 177 174 174 173 171 171 175 184 203 211 219 230 241 245 230 221 214 224 202 292 302 324 173 187 201 207 216 196
146 147 148 153 152 150 147 146 147 147 148 152 158 156 159 158 160 159 156 155 162 170 176 182 190 199 210 198 186 177 176 174 183 171 187 247 214 124 126 143 163 198 215 215
135 135 135 137 140 141 142 144 144 142 146 146 149 148 151 149 148 147 151 158 161 161 168 163 163 168 165 167 166 173 181 183 191 190 208 225 212 197 188 156 162 184 199 210
Height
10822 10825 10829 10832 10836 10839 10841 10843 10848 10848 10850 10851 10851 10853 10856 10858 10857 10859 10859 10859 10860 10860 10860 10861 10860 10861 10861 10861 10861 10861 10859 10858 10855 10856 10855 10851 10850 10847 10846 10845 10844 10842 10837 10830
10805 10808 10812 10815 10818 10822 10824 10827 10830 10832 10834 10834 10836 10837 10839 10843 10843 10844 10846 10847 10846 10847 10847 10847 10848 10848 10849 10850 10850 10850 10850 10847 10843 10840 10839 10839 10836 10833 10829 10829 10827 10823 10820 10815
10786 10789 10794 10797 10800 10803 10806 10810 10813 10814 10817 10819 10820 10823 10824 10826 10830 10831 10831 10833 10833 10833 10833 10833 10834 10834 10834 10835 10837 10837 10837 10834 10831 10827 10826 10825 10823 10820 10817 10815 10812 10811 10803 10804
10768 10771 10775 10780 10782 10785 10787 10792 10797 10798 10802 10803 10804 10807 10809 10809 10813 10815 10817 10818 10819 10818 10818 10817 10818 10819 10820 10820 10823 10823 10822 10821 10820 10816 10813 10810 10808 10804 10802 10801 10798 10794 10792 10785
10748 10753 10756 10761 10765 10767 10770 10774 10778 10781 10785 10786 10786 10789 10793 10793 10796 10797 10800 10801 10803 10802 10802 10802 10801 10799 10804 10805 10806 10806 10805 10804 10804 10801 10798 10796 10794 10788 10786 10783 10780 10777 10773 10769
10728 10733 10736 10740 10745 10747 10752 10755 10758 10762 10767 10768 10768 10772 10772 10774 10777 10781 10782 10782 10785 10786 10789 10785 10785 10785 10785 10787 10788 10790 10787 10787 10787 10784 10780 10778 10776 10772 10768 10767 10764 10760 10755 10750
10704 10710 10716 10718 10723 10727 10730 10734 10737 10740 10746 10747 10750 10753 10752 10755 10757 10760 10763 10764 10764 10771 10769 10769 10769 10769 10769 10771 10771 10769 10770 10768 10767 10767 10763 10759 10759 10754 10750 10748 10744 10741 10736 10731
10679 10685 10691 10695 10699 10703 10708 10712 10716 10720 10722 10725 10726 10732 10734 10736 10736 10735 10741 10743 10747 10747 10749 10749 10750 10751 10752 10753 10754 10750 10750 10749 10747 10744 10741 10737 10733 10735 10731 10727 10724 10721 10716 10713
10652 10658 10664 10670 10673 10677 10682 10688 10693 10697 10700 10703 10703 10706 10711 10714 10716 10717 10714 10721 10724 10723 10725 10727 10730 10732 10731 10734 10735 10730 10730 10731 10728 10726 10721 10716 10714 10714 10709 10707 10701 10701 10695 10693
10625 10630 10636 10642 10647 10650 10654 10661 10666 10673 10676 10679 10678 10679 10686 10690 10692 10694 10697 10698 10699 10702 10704 10705 10707 10709 10710 10712 10710 10712 10711 10711 10709 10703 10701 10695 10697 10693 10690 10687 10680 10677 10676 10674
10596 10601 10607 10613 10619 10622 10625 10632 10638 10644 10650 10651 10653 10655 10657 10661 10664 10667 10675 10675 10676 10680 10679 10682 10683 10686 10685 10689 10685 10685 10687 10689 10686 10683 10679 10675 10680 10673 10671 10666 10661 10660 10658 10654
10566 10571 10576 10581 10588 10593 10594 10599 10606 10613 10622 10623 10619 10625 10626 10634 10636 10642 10645 10647 10652 10652 10652 10656 10661 10661 10665 10664 10659 10662 10661 10665 10660 10661 10653 10654 10652 10651 10651 10644 10641 10641 10638 10634
10535 10541 10544 10550 10556 10561 10564 10565 10573 10580 10589 10592 10591 10589 10595 10604 10604 10611 10619 10619 10619 10623 10628 10632 10637 10639 10640 10641 10636 10641 10642 10640 10640 10638 10633 10632 10634 10632 10628 10625 10623 10622 10619 10612
10506 10511 10513 10520 10525 10528 10531 10531 10539 10544 10554 10562 10560 10555 10564 10572 10574 10580 10588 10584 10590 10594 10601 10608 10613 10615 10619 10616 10619 10622 10613 10620 10622 10626 10613 10620 10612 10612 10611 10608 10606 10604 10601 10595
10473 10479 10484 10488 10493 10497 10500 10500 10504 10511 10515 10527 10530 10524 10528 10537 10545 10548 10553 10556 10560 10566 10574 10583 10588 10590 10597 10595 10604 10599 10593 10602 10609 10608 10602 10604 10591 10596 10596 10592 10591 10588 10585 10578
10446 10450 10456 10459 10463 10466 10468 10467 10472 10474 10479 10488 10491 10493 10489 10510 10513 10516 10521 10527 10531 10538 10547 10556 10563 10566 10572 10582 10586 10568 10584 10591 10592 10588 10589 10583 10578 10581 10581 10576 10575 10573 10567 10562
10419 10423 10427 10430 10432 10434 10432 10437 10439 10442 10448 10456 10462 10463 10458 10474 10478 10481 10492 10497 10504 10512 10523 10534 10539 10543 10554 10564 10559 10557 10571 10574 10576 10574 10571 10567 10566 10565 10565 10561 10560 10557 10552 10547
10391 10395 10398 10402 10403 10402 10406 10413 10414 10418 10422 10427 10432 10429 10436 10442 10447 10454 10463 10471 10478 10490 10499 10507 10513 10522 10534 10544 10531 10551 10554 10557 10559 10559 10558 10554 10554 10551 10549 10545 10542 10539 10536 10535
10365 10370 10374 10376 10379 10384 10389 10388 10392 10395 10399 10402 10406 10411 10416 10419 10426 10435 10442 10450 10458 10468 10476 10483 10492 10504 10515 10511 10528 10534 10538 10540 10543 10543 10544 10541 10541 10539 10533 10530 10527 10526 10525 10527
10346 10350 10353 10358 10363 10366 10368 10370 10374 10377 10382 10386 10391 10396 10400 10406 10413 10419 10427 10432 10439 10446 10455 10465 10476 10484 10492 10505 10511 10518 10522 10526 10529 10531 10529 10527 10527 10525 10520 10518 10517 10517 10518 10518
10329 10333 10338 10343 10347 10351 10354 10357 10363 10366 10369 10373 10378 10383 10390 10396 10402 10408 10414 10421 10426 10433 10442 10450 10459 10470 10482 10489 10496 10503 10508 10512 10515 10517 10516 10515 10514 10510 10509 10509 10510 10511 10511 10512
10318 10323 10327 10332 10337 10341 10345 10349 10352 10356 10361 10365 10371 10378 10384 10390 10395 10402 10406 10412 10418 10424 10432 10440 10450 10462 10470 10478 10485 10492 10497 10500 10502 10504 10503 10503 10501 10501 10502 10502 10504 10505 10506 10508
10310 10315 10320 10325 10329 10334 10338 10342 10346 10352 10356 10362 10368 10374 10381 10385 10391 10395 10401 10408 10415 10422 10427 10435 10445 10454 10460 10469 10476 10482 10487 10489 10492 10493 10494 10495 10496 10496 10496 10496 10498 10500 10501 10504
10305 10310 10315 10320 10326 10331 10336 10340 10345 10351 10356 10362 10368 10373 10379 10384 10389 10394 10400 10406 10411 10417 10426 10436 10442 10447 10455 10461 10467 10472 10477 10480 10483 10486 10488 10490 10491 10491 10491 10493 10495 10495 10497 10500
10303 10308 10313 10319 10325 10331 10337 10342 10348 10354 10359 10364 10368 10373 10378 10382 10387 10392 10399 10405 10412 10420 10427 10433 10438 10445 10450 10455 10461 10466 10470 10474 10478 10483 10485 10487 10488 10487 10487 10488 10489 10491 10494 10498
10305 10311 10317 10322 10327 10333 10339 10345 10350 10354 10360 10366 10370 10374 10378 10383 10389 10395 10402 10408 10414 10420 10426 10431 10436 10442 10447 10454 10459 10464 10469 10473 10477 10481 10483 10484 10486 10486 10485 10486 10488 10490 10492 10495
10310 10316 10322 10327 10333 10339 10344 10349 10354 10358 10363 10368 10373 10378 10383 10388 10394 10399 10405 10409 10415 10422 10427 10432 10438 10444 10450 10454 10460 10464 10468 10472 10475 10478 10481 10482 10483 10484 10484 10485 10486 10488 10489 10490